Вернуться в каталог

NOAA 17 DEB

АктивенPO
NORAD 48184·DEBRIS·🇺🇸 United States

Запущен Jun 24, 2002 с Vandenberg Space Force Base

Loading…

Ближайшие Пролёты (ближайшие 24 часа)

TLE

СвежийSource: Space-Track

Эпоха: Sep 14, 2026, 18:38 UTC

1 48184U 02032Z   26257.77678636  .00004533  00000-0  11098-2 0  9990
2 48184  98.8358 262.8480 0012772 358.8648   1.2516 14.52970313285789

Отслеживайте NOAA 17 DEB в реальном времени с AllMySat

Download on the App Store